Notices

What's New in latest Release from April 7th, 2021:

- Updated Glossary, including Speed of Maximum Gust, and Total Hourly Precipitation

- Updated national and regional climate services offices contacts and prices information

- Addition of station inventory lists for 1981-2010, 1971-2000, and 1961-1990 Normals.

Please note that as of June 10, 2021 UTC dates are available for all years 2004-present, and DBA is working on populating the remaining years (2003 to 1953).

If you haven't already, please take our survey and provide feedback about our website: https://eccc.sondage-survey.ca/f/LanguageSelection.aspx?s=442ca660-fcf1-47c0-95a9-59707d6fd709

Hourly Data Report for September 09, 2004

SHERBROOKE A
QUEBEC

45°26'00.000" N
71°41'00.000" W
241.40 m
7028124
71610
YSC

Download Data

Hourly Data (September 2004)
Hourly Data Report for September 9, 2004
TIME
LST
Temp Definition
°C
Dew Point Definition
°C
Rel Hum Definition
%
Precip. Amount Definition
mm

Wind Dir Definition
10's deg

Wind Spd Definition
km/h
Visibility Definition
km
Stn Press Definition
kPa
Hmdx Definition


Wind Chill Definition


Weather Definition


00:00 15.4 13.5 88   8 7 15.0 99.49      
01:00 14.9 13.7 93   5 6 15.0 99.45     Rain
02:00 14.6 13.4 93   8 9 15.0 99.40     Rain
03:00 14.5 13.4 93   7 9 15.0 99.30     Rain
04:00 14.0 12.8 92   6 11 15.0 99.27     Rain
05:00 14.0 12.9 93   6 13 15.0 99.29     Rain
06:00 13.7 12.8 94   6 11 15.0 99.25     Rain
07:00 13.9 13.1 95   5 11 6.4 99.18     Rain,Fog
08:00 14.2 13.4 95   5 13 12.9 99.08     Rain
09:00 14.2 13.4 95   6 15 6.4 98.97     Rain,Fog
10:00 14.5 13.7 95   7 13 4.8 98.91     Moderate Rain,Fog
11:00 14.8 13.9 94   6 17 16.1 98.75     Rain
12:00 14.9 13.9 94   6 17 16.1 98.61     Rain
13:00 15.6 14.6 94   7 11 24.1 98.44     Rain
14:00 16.6 15.3 92   5 11 24.1 98.28     Cloudy
15:00 18.6 15.8 84   12 13 24.1 98.19     Mostly Cloudy
16:00 19.1 16.0 82   14 17 24.1 98.11     Mostly Cloudy
17:00 19.8 16.7 82   14 20 15.0 97.99      
18:00 19.4 16.6 84   13 20 15.0 97.90      
19:00 19.5 17.0 85   13 13 15.0 97.86      
20:00 19.6 17.3 87   12 6 15.0 97.83      
21:00 20.1 17.9 87   12 11 15.0 97.75 26   Rain
22:00 20.2 18.1 88   11 11 15.0 97.68 26    
23:00 21.9 19.2 85   17 13 15.0 97.63 29    

Notes on Data Quality.

Legend

  • E = Estimated
  • M = Missing
  • NA = Not Available*
  • [empty] = Indicates an unobserved value
Date modified: